EDW150 LSZH-LIEE

Flight info

Callsign EDW150
Flight time N/A
Altitude 35000
Route VEBIT T53 GERSA N850 SOSON DCT ODINA DCT SPEZI DCT BAKRO DCT ROMPO DCT DEXUL Q125 KOVAS
Aircraft A320/M-SDE3FGHIRWY/LB1

Departure

Time N/A
Airport Zürich Airport (LSZH)

Arrival

Time 2026-05-09 00:34
Airport Cagliari Elmas Airport (LIEE)
Time Latitude Longitude Altitude Speed Heading
2026-05-08 23:32 45.83901 8.77496 32602 ft 467 kts 168°
2026-05-08 23:32 45.80784 8.78783 32879 ft 465 kts 168°
2026-05-08 23:33 45.77691 8.80059 33200 ft 462 kts 168°
2026-05-08 23:33 45.74597 8.81334 33496 ft 461 kts 168°
2026-05-08 23:33 45.71519 8.82598 33775 ft 460 kts 168°
2026-05-08 23:33 45.68441 8.83857 34055 ft 458 kts 168°
2026-05-08 23:34 45.65417 8.85092 34297 ft 458 kts 168°
2026-05-08 23:34 45.62358 8.86343 34521 ft 457 kts 168°
2026-05-08 23:34 45.59304 8.87593 34757 ft 456 kts 168°
2026-05-08 23:34 45.56255 8.88840 34993 ft 456 kts 168°
2026-05-08 23:35 45.50154 8.91332 35109 ft 456 kts 168°
2026-05-08 23:35 45.44059 8.93811 35105 ft 455 kts 168°
2026-05-08 23:36 45.37963 8.96291 35090 ft 455 kts 168°
2026-05-08 23:36 45.31866 8.98759 35092 ft 456 kts 168°
2026-05-08 23:37 45.25809 9.01204 35103 ft 455 kts 168°
2026-05-08 23:37 45.19704 9.03663 35093 ft 455 kts 168°
2026-05-08 23:38 45.13613 9.06116 35105 ft 455 kts 168°
2026-05-08 23:38 45.07531 9.08555 35104 ft 454 kts 168°
2026-05-08 23:39 45.01456 9.10984 35099 ft 453 kts 168°
2026-05-08 23:39 44.95390 9.13408 35112 ft 452 kts 168°
2026-05-08 23:40 44.89380 9.15817 35121 ft 452 kts 168°
2026-05-08 23:40 44.83318 9.18235 35121 ft 452 kts 168°
2026-05-08 23:41 44.77264 9.20632 35111 ft 452 kts 168°
2026-05-08 23:41 44.71215 9.23027 35112 ft 451 kts 168°
2026-05-08 23:42 44.65169 9.25420 35115 ft 451 kts 168°
2026-05-08 23:42 44.59123 9.27808 35109 ft 451 kts 168°
2026-05-08 23:43 44.53115 9.30173 35119 ft 451 kts 168°
2026-05-08 23:43 44.47075 9.32550 35120 ft 450 kts 168°
2026-05-08 23:44 44.41045 9.34918 35110 ft 450 kts 168°
2026-05-08 23:44 44.35016 9.37266 35111 ft 450 kts 168°
2026-05-08 23:45 44.29027 9.39599 35110 ft 450 kts 168°
2026-05-08 23:45 44.22993 9.41950 35109 ft 450 kts 168°
2026-05-08 23:46 44.16974 9.44286 35097 ft 449 kts 168°
2026-05-08 23:46 44.10936 9.46618 35093 ft 449 kts 168°
2026-05-08 23:47 44.04911 9.48952 35078 ft 449 kts 168°
2026-05-08 23:47 43.98925 9.51276 35069 ft 450 kts 168°
2026-05-08 23:48 43.92895 9.53606 35073 ft 450 kts 168°
2026-05-08 23:48 43.86860 9.55927 35071 ft 450 kts 168°
2026-05-08 23:49 43.80813 9.58243 35068 ft 450 kts 168°
2026-05-08 23:49 43.74784 9.60689 35079 ft 452 kts 165°
2026-05-08 23:50 43.68865 9.63659 35080 ft 454 kts 163°
2026-05-08 23:50 43.62976 9.66793 35087 ft 453 kts 163°
2026-05-08 23:51 43.57096 9.69802 35073 ft 453 kts 164°
2026-05-08 23:51 43.51162 9.72736 35079 ft 453 kts 165°
2026-05-08 23:52 43.45223 9.75660 35070 ft 453 kts 164°
2026-05-08 23:52 43.39285 9.78611 35064 ft 454 kts 165°
2026-05-08 23:53 43.33337 9.81569 35071 ft 455 kts 165°
2026-05-08 23:53 43.27408 9.84499 35077 ft 456 kts 164°
2026-05-08 23:54 43.21423 9.87416 35078 ft 455 kts 168°
2026-05-08 23:55 43.12179 9.88376 35070 ft 443 kts 187°
2026-05-08 23:55 43.06016 9.88004 35071 ft 444 kts 187°
2026-05-08 23:56 42.99841 9.87649 35061 ft 444 kts 187°
2026-05-08 23:56 42.93657 9.87295 35066 ft 445 kts 187°
2026-05-08 23:57 42.87498 9.86945 35068 ft 446 kts 187°
2026-05-08 23:57 42.81300 9.86600 35072 ft 446 kts 187°
2026-05-08 23:58 42.75091 9.86246 35064 ft 446 kts 188°
2026-05-08 23:58 42.68882 9.85890 35067 ft 447 kts 188°
2026-05-08 23:59 42.62668 9.85534 35069 ft 447 kts 188°
2026-05-08 23:59 42.56447 9.85184 35056 ft 448 kts 189°
2026-05-09 00:00 42.50214 9.84839 35062 ft 449 kts 189°
2026-05-09 00:00 42.43973 9.84486 35070 ft 449 kts 189°
2026-05-09 00:01 42.37759 9.84131 35077 ft 450 kts 189°
2026-05-09 00:01 42.31508 9.83779 35081 ft 450 kts 189°
2026-05-09 00:02 42.25250 9.83430 35084 ft 450 kts 189°
2026-05-09 00:02 42.18992 9.83081 35078 ft 450 kts 190°
2026-05-09 00:03 42.12727 9.82734 35077 ft 450 kts 190°
2026-05-09 00:03 42.06505 9.82387 35080 ft 451 kts 190°
2026-05-09 00:04 42.00228 9.82045 35086 ft 452 kts 190°
2026-05-09 00:04 41.93934 9.81682 35087 ft 454 kts 192°
2026-05-09 00:05 41.87612 9.81325 35092 ft 456 kts 192°
2026-05-09 00:05 41.81265 9.80981 35085 ft 456 kts 192°
2026-05-09 00:06 41.74910 9.80638 35082 ft 458 kts 193°
2026-05-09 00:06 41.68563 9.80286 35087 ft 460 kts 193°
2026-05-09 00:07 41.62171 9.79933 35087 ft 460 kts 193°
2026-05-09 00:07 41.55771 9.79581 35065 ft 461 kts 194°
2026-05-09 00:08 41.49340 9.79229 35083 ft 463 kts 194°
2026-05-09 00:08 41.42902 9.78882 35094 ft 463 kts 194°
2026-05-09 00:09 41.36506 9.78537 35084 ft 463 kts 194°
2026-05-09 00:09 41.30087 9.78187 35090 ft 461 kts 194°
2026-05-09 00:10 41.23686 9.77838 35089 ft 460 kts 194°
2026-05-09 00:10 41.17286 9.77491 35089 ft 460 kts 194°
2026-05-09 00:11 41.10925 9.76987 35087 ft 449 kts 201°
2026-05-09 00:11 41.07944 9.76046 35092 ft 433 kts 211°
2026-05-09 00:11 41.05184 9.74664 35089 ft 428 kts 213°
2026-05-09 00:11 41.02412 9.73234 34583 ft 426 kts 213°
2026-05-09 00:12 40.99647 9.71810 34026 ft 427 kts 213°
2026-05-09 00:12 40.96864 9.70373 33435 ft 431 kts 213°
2026-05-09 00:12 40.94062 9.68921 32858 ft 434 kts 212°
2026-05-09 00:12 40.91235 9.67459 32252 ft 438 kts 212°
2026-05-09 00:13 40.88384 9.65985 31697 ft 442 kts 211°
2026-05-09 00:13 40.85504 9.64502 31152 ft 446 kts 211°
2026-05-09 00:13 40.82596 9.63008 30600 ft 450 kts 211°
2026-05-09 00:13 40.79660 9.61503 30087 ft 455 kts 210°
2026-05-09 00:14 40.76702 9.59991 29484 ft 457 kts 210°
2026-05-09 00:14 40.73733 9.58475 28883 ft 458 kts 210°
2026-05-09 00:14 40.70754 9.56958 28266 ft 460 kts 209°
2026-05-09 00:14 40.67766 9.55444 27698 ft 460 kts 209°
2026-05-09 00:15 40.64773 9.53928 27128 ft 461 kts 208°
2026-05-09 00:15 40.61776 9.52408 26579 ft 462 kts 208°
2026-05-09 00:15 40.58778 9.50887 26036 ft 462 kts 208°
2026-05-09 00:15 40.55816 9.49381 25505 ft 462 kts 208°
2026-05-09 00:16 40.52776 9.47833 24997 ft 463 kts 207°
2026-05-09 00:16 40.49819 9.46327 24500 ft 463 kts 207°
2026-05-09 00:16 40.46820 9.44798 24046 ft 462 kts 207°
2026-05-09 00:16 40.43816 9.43275 23573 ft 464 kts 206°
2026-05-09 00:17 40.40841 9.41781 23017 ft 450 kts 206°
2026-05-09 00:17 40.37961 9.40342 22490 ft 436 kts 207°
2026-05-09 00:17 40.35161 9.38939 21963 ft 426 kts 207°
2026-05-09 00:17 40.32427 9.37563 21476 ft 416 kts 207°
2026-05-09 00:18 40.29766 9.36221 21091 ft 404 kts 207°
2026-05-09 00:18 40.27164 9.34907 20718 ft 397 kts 207°
2026-05-09 00:18 40.24594 9.33610 20354 ft 395 kts 207°
2026-05-09 00:18 40.22033 9.32312 19970 ft 393 kts 207°
2026-05-09 00:19 40.19491 9.31025 19622 ft 391 kts 207°
2026-05-09 00:19 40.16954 9.29743 19273 ft 390 kts 207°
2026-05-09 00:19 40.14456 9.28484 18928 ft 389 kts 207°
2026-05-09 00:19 40.11923 9.27212 18578 ft 389 kts 207°
2026-05-09 00:20 40.09400 9.25952 18180 ft 388 kts 206°
2026-05-09 00:20 40.06880 9.24696 17793 ft 387 kts 206°
2026-05-09 00:20 40.04372 9.23448 17398 ft 385 kts 206°
2026-05-09 00:20 40.01882 9.22207 17013 ft 382 kts 206°
2026-05-09 00:21 39.99405 9.20971 16632 ft 378 kts 206°
2026-05-09 00:21 39.96948 9.19749 16262 ft 377 kts 206°
2026-05-09 00:21 39.94529 9.18545 15890 ft 375 kts 206°
2026-05-09 00:21 39.92071 9.17316 15517 ft 373 kts 206°
2026-05-09 00:22 39.89673 9.16119 15152 ft 373 kts 206°
2026-05-09 00:22 39.87262 9.14915 14777 ft 370 kts 206°
2026-05-09 00:22 39.84820 9.13861 14430 ft 371 kts 199°
2026-05-09 00:22 39.82328 9.13022 14084 ft 369 kts 199°
2026-05-09 00:23 39.79847 9.12190 13720 ft 367 kts 199°
2026-05-09 00:23 39.77376 9.11358 13319 ft 365 kts 199°
2026-05-09 00:23 39.74931 9.10535 12934 ft 363 kts 199°
2026-05-09 00:23 39.72495 9.09716 12551 ft 361 kts 199°
2026-05-09 00:24 39.70888 9.09177 12301 ft 358 kts 199°
2026-05-09 00:24 39.68504 9.08382 11916 ft 350 kts 198°
2026-05-09 00:24 39.66166 9.07606 11536 ft 342 kts 199°
2026-05-09 00:24 39.63875 9.07106 11141 ft 328 kts 187°
2026-05-09 00:25 39.61624 9.07132 10613 ft 318 kts 184°
2026-05-09 00:25 39.59457 9.07187 10100 ft 307 kts 184°
2026-05-09 00:25 39.57338 9.07242 9498 ft 299 kts 184°
2026-05-09 00:25 39.55283 9.07295 8886 ft 293 kts 184°
2026-05-09 00:26 39.53266 9.07343 8313 ft 285 kts 184°
2026-05-09 00:26 39.51314 9.07298 7770 ft 276 kts 186°
2026-05-09 00:26 39.49423 9.07166 7235 ft 269 kts 188°
2026-05-09 00:26 39.47699 9.06498 6705 ft 254 kts 218°
2026-05-09 00:27 39.46659 9.04764 6173 ft 243 kts 251°
2026-05-09 00:27 39.46385 9.02633 5630 ft 239 kts 268°
2026-05-09 00:27 39.46230 9.00503 5070 ft 238 kts 261°
2026-05-09 00:27 39.45901 8.98414 4520 ft 236 kts 255°
2026-05-09 00:28 39.45431 8.96378 3963 ft 235 kts 250°
2026-05-09 00:28 39.44838 8.94411 3418 ft 234 kts 245°
2026-05-09 00:28 39.44147 8.92540 2867 ft 233 kts 241°
2026-05-09 00:28 39.43223 8.90847 2392 ft 226 kts 217°
2026-05-09 00:29 39.41894 8.90004 2310 ft 204 kts 189°
2026-05-09 00:29 39.40525 8.90050 2357 ft 192 kts 164°
2026-05-09 00:29 39.39372 8.90825 2335 ft 185 kts 142°
2026-05-09 00:29 39.38362 8.91843 2326 ft 183 kts 142°
2026-05-09 00:30 39.37360 8.92853 2302 ft 182 kts 142°
2026-05-09 00:30 39.36362 8.93860 2310 ft 182 kts 142°
2026-05-09 00:30 39.35365 8.94864 2312 ft 182 kts 142°
2026-05-09 00:30 39.34363 8.95871 2192 ft 183 kts 142°
2026-05-09 00:31 39.33378 8.96863 1928 ft 173 kts 141°
2026-05-09 00:31 39.32485 8.97767 1708 ft 154 kts 141°
2026-05-09 00:31 39.31680 8.98593 1479 ft 142 kts 141°
2026-05-09 00:31 39.30930 8.99362 1296 ft 138 kts 141°
2026-05-09 00:32 39.30183 9.00129 1101 ft 136 kts 141°
2026-05-09 00:32 39.29420 9.00859 920 ft 137 kts 147°
2026-05-09 00:32 39.28604 9.01513 720 ft 139 kts 143°
2026-05-09 00:32 39.27860 9.02311 520 ft 139 kts 138°
2026-05-09 00:33 39.27138 9.03134 326 ft 138 kts 138°
2026-05-09 00:33 39.26421 9.03956 133 ft 137 kts 137°
2026-05-09 00:33 39.25727 9.04760 17 ft 124 kts 137°
2026-05-09 00:33 39.25195 9.05372 15 ft 87 kts 138°
2026-05-09 00:34 39.24809 9.05820 17 ft 61 kts 138°
2026-05-09 00:34 39.24532 9.06141 14 ft 47 kts 138°
2026-05-09 00:34 39.24332 9.06373 16 ft 27 kts 137°
2026-05-09 00:34 39.24251 9.06481 17 ft 12 kts 111°
2026-05-09 00:35 39.24303 9.06550 16 ft 13 kts 17°
2026-05-09 00:35 39.24346 9.06568 15 ft 0 kts 18°
2026-05-09 00:36 39.24383 9.06574 15 ft 10 kts 352°
2026-05-09 00:36 39.24448 9.06514 15 ft 14 kts 316°
2026-05-09 00:37 39.24523 9.06426 15 ft 15 kts 319°
2026-05-09 00:37 39.24606 9.06329 15 ft 18 kts 318°
2026-05-09 00:37 39.24708 9.06211 15 ft 22 kts 318°
2026-05-09 00:37 39.24810 9.06093 15 ft 20 kts 318°
2026-05-09 00:38 39.24921 9.05966 15 ft 22 kts 318°
2026-05-09 00:38 39.25022 9.05847 15 ft 16 kts 318°
2026-05-09 00:38 39.25105 9.05777 15 ft 13 kts
2026-05-09 00:38 39.25156 9.05854 17 ft 5 kts 71°
2026-05-09 00:39 39.25142 9.05906 15 ft 9 kts 103°
2026-05-09 00:39 39.25169 9.05967 15 ft 7 kts 50°
2026-05-09 00:39 39.25198 9.06014 15 ft 4 kts 51°
2026-05-09 00:39 39.25223 9.06017 15 ft 4 kts 347°
2026-05-09 00:40 39.25243 9.06001 16 ft 3 kts 325°
2026-05-09 00:40 39.25259 9.05983 15 ft 1 kts 321°
2026-05-09 00:40 39.25262 9.05980 15 ft 0 kts 321°